Previsão horária em Barnislaw

Hoje, 21 Outubro, Quarta-feira

Tempo Temperatura Precipitação Vento Pressão Humidade
00:00 +10°C° 0.3 mm 4 m/s 751 mmHg 92%
01:00 +10°C° 0 mm 4 m/s 751 mmHg 92%
02:00 +10°C° 0.8 mm 4 m/s 751 mmHg 93%
03:00 +10°C° 0.8 mm 4 m/s 751 mmHg 94%
04:00 +10°C° 0.8 mm 3 m/s 750 mmHg 95%
05:00 +10°C° 0.7 mm 4 m/s 750 mmHg 95%
06:00 +10°C° 0.7 mm 4 m/s 750 mmHg 95%
07:00 +10°C° 0 mm 3 m/s 750 mmHg 92%
08:00 +10°C° 0.1 mm 4 m/s 750 mmHg 89%
09:00 +10°C° 0.1 mm 4 m/s 750 mmHg 86%
10:00 +9°C° 0.1 mm 5 m/s 750 mmHg 84%
11:00 +9°C° 0 mm 5 m/s 750 mmHg 82%
12:00 +11°C° 0 mm 4 m/s 750 mmHg 81%
13:00 +11°C° 0 mm 3 m/s 749 mmHg 83%
14:00 +11°C° 0 mm 4 m/s 749 mmHg 81%
15:00 +11°C° 0 mm 4 m/s 748 mmHg 79%
16:00 +10°C° 0 mm 5 m/s 748 mmHg 78%
17:00 +10°C° 0 mm 5 m/s 748 mmHg 76%
18:00 +12°C° 0 mm 5 m/s 748 mmHg 75%
19:00 +12°C° 0 mm 5 m/s 748 mmHg 74%
20:00 +13°C° 0 mm 6 m/s 748 mmHg 72%
21:00 +13°C° 0 mm 6 m/s 748 mmHg 71%
22:00 +13°C° 0 mm 6 m/s 748 mmHg 69%
23:00 +14°C° 0 mm 7 m/s 748 mmHg 70%

Amanhã, 22 Outubro, Quinta-feira

Tempo Temperatura Precipitação Vento Pressão Humidade
00:00 +14°C° 0 mm 7 m/s 748 mmHg 70%
01:00 +14°C° 0 mm 7 m/s 748 mmHg 70%
02:00 +14°C° 0 mm 7 m/s 748 mmHg 73%
03:00 +14°C° 0 mm 7 m/s 748 mmHg 75%
04:00 +14°C° 0 mm 7 m/s 748 mmHg 77%
05:00 +14°C° 0 mm 7 m/s 749 mmHg 79%
06:00 +14°C° 0 mm 6 m/s 749 mmHg 82%
07:00 +13°C° 0 mm 6 m/s 750 mmHg 84%
08:00 +14°C° 0 mm 6 m/s 751 mmHg 81%
09:00 +15°C° 0 mm 6 m/s 751 mmHg 78%
10:00 +16°C° 0 mm 6 m/s 752 mmHg 75%
11:00 +17°C° 0 mm 6 m/s 752 mmHg 71%
12:00 +17°C° 0 mm 6 m/s 752 mmHg 68%
13:00 +19°C° 0 mm 6 m/s 752 mmHg 65%
14:00 +17°C° 0 mm 6 m/s 752 mmHg 65%
15:00 +17°C° 0 mm 5 m/s 752 mmHg 66%
16:00 +17°C° 0 mm 4 m/s 751 mmHg 67%
17:00 +15°C° 0 mm 4 m/s 751 mmHg 72%
18:00 +15°C° 0 mm 4 m/s 751 mmHg 78%
19:00 +14°C° 0 mm 4 m/s 751 mmHg 83%
20:00 +14°C° 0.1 mm 4 m/s 751 mmHg 83%
21:00 +14°C° 0.1 mm 5 m/s 751 mmHg 83%
22:00 +14°C° 0.1 mm 5 m/s 751 mmHg 84%
23:00 +14°C° 0 mm 5 m/s 751 mmHg 83%

Depois de amanhã, 23 Outubro, Sexta-feira

Tempo Temperatura Precipitação Vento Pressão Humidade
00:00 +14°C° 0 mm 5 m/s 751 mmHg 83%
01:00 +14°C° 0 mm 5 m/s 751 mmHg 83%
02:00 +13°C° 0 mm 4 m/s 751 mmHg 84%
03:00 +13°C° 0 mm 4 m/s 751 mmHg 86%
04:00 +13°C° 0 mm 3 m/s 750 mmHg 87%
05:00 +12°C° 0 mm 3 m/s 750 mmHg 89%
06:00 +12°C° 0 mm 3 m/s 750 mmHg 92%
07:00 +11°C° 0 mm 3 m/s 750 mmHg 94%
08:00 +12°C° 0 mm 3 m/s 750 mmHg 87%
09:00 +13°C° 0 mm 3 m/s 751 mmHg 81%
10:00 +14°C° 0 mm 3 m/s 751 mmHg 74%
11:00 +16°C° 0 mm 3 m/s 751 mmHg 71%
12:00 +17°C° 0 mm 3 m/s 751 mmHg 69%
13:00 +17°C° 0 mm 3 m/s 750 mmHg 66%
14:00 +17°C° 0 mm 3 m/s 750 mmHg 69%
15:00 +16°C° 0 mm 2 m/s 750 mmHg 72%
16:00 +15°C° 0 mm 1 m/s 750 mmHg 75%
17:00 +15°C° 0 mm 1 m/s 750 mmHg 78%
18:00 +14°C° 0 mm 1 m/s 750 mmHg 81%
19:00 +12°C° 0 mm 0 m/s 750 mmHg 84%
20:00 +13°C° 0 mm 1 m/s 750 mmHg 86%
21:00 +12°C° 0 mm 1 m/s 750 mmHg 87%
22:00 +12°C° 0 mm 1 m/s 750 mmHg 89%
23:00 +12°C° 0.1 mm 1 m/s 750 mmHg 90%

24 Outubro, Sábado

Tempo Temperatura Precipitação Vento Pressão Humidade
00:00 +12°C° 0.1 mm 2 m/s 750 mmHg 92%
01:00 +12°C° 0.1 mm 2 m/s 750 mmHg 94%
02:00 +12°C° 0.2 mm 2 m/s 750 mmHg 95%
03:00 +11°C° 0.2 mm 3 m/s 749 mmHg 95%
04:00 +10°C° 0.2 mm 3 m/s 749 mmHg 96%
05:00 +11°C° 0 mm 3 m/s 749 mmHg 94%
06:00 +11°C° 0 mm 4 m/s 750 mmHg 92%
07:00 +11°C° 0 mm 4 m/s 750 mmHg 90%
08:00 +10°C° 0 mm 5 m/s 750 mmHg 86%
09:00 +12°C° 0 mm 5 m/s 751 mmHg 81%
10:00 +11°C° 0 mm 6 m/s 751 mmHg 77%
11:00 +11°C° 0 mm 6 m/s 752 mmHg 72%
12:00 +12°C° 0 mm 7 m/s 752 mmHg 68%
13:00 +12°C° 0 mm 7 m/s 753 mmHg 63%
14:00 +11°C° 0 mm 6 m/s 753 mmHg 65%
15:00 +12°C° 0 mm 5 m/s 753 mmHg 67%
16:00 +11°C° 0 mm 4 m/s 753 mmHg 69%
17:00 +10°C° 0 mm 4 m/s 754 mmHg 72%
18:00 +9°C° 0 mm 3 m/s 754 mmHg 76%
19:00 +8°C° 0 mm 3 m/s 754 mmHg 79%
20:00 +8°C° 0 mm 3 m/s 755 mmHg 81%
21:00 +7°C° 0 mm 3 m/s 755 mmHg 82%
22:00 +7°C° 0 mm 2 m/s 755 mmHg 84%
23:00 +7°C° 0 mm 3 m/s 755 mmHg 82%

25 Outubro, Domingo

Tempo Temperatura Precipitação Vento Pressão Humidade
00:00 +8°C° 0 mm 3 m/s 754 mmHg 81%
01:00 +8°C° 0 mm 3 m/s 754 mmHg 80%
02:00 +8°C° 0 mm 3 m/s 754 mmHg 83%
03:00 +7°C° 0 mm 3 m/s 754 mmHg 87%
04:00 +7°C° 0 mm 3 m/s 754 mmHg 91%
05:00 +7°C° 0 mm 3 m/s 753 mmHg 91%
06:00 +7°C° 0 mm 3 m/s 753 mmHg 92%
07:00 +7°C° 0 mm 3 m/s 753 mmHg 92%
08:00 +8°C° 0 mm 4 m/s 753 mmHg 88%
09:00 +10°C° 0 mm 4 m/s 753 mmHg 84%
10:00 +11°C° 0 mm 4 m/s 753 mmHg 80%
11:00 +13°C° 0 mm 5 m/s 753 mmHg 76%
12:00 +14°C° 0 mm 5 m/s 752 mmHg 72%
13:00 +15°C° 0 mm 5 m/s 752 mmHg 68%
14:00 +15°C° 0 mm 5 m/s 752 mmHg 69%
15:00 +14°C° 0 mm 4 m/s 751 mmHg 70%
16:00 +14°C° 0 mm 4 m/s 751 mmHg 72%
17:00 +13°C° 0 mm 4 m/s 751 mmHg 75%
18:00 +12°C° 0 mm 4 m/s 751 mmHg 78%
19:00 +11°C° 0 mm 4 m/s 751 mmHg 81%
20:00 +11°C° 0 mm 4 m/s 751 mmHg 81%
21:00 +11°C° 0 mm 4 m/s 751 mmHg 82%
22:00 +11°C° 0 mm 4 m/s 751 mmHg 82%
23:00 +10°C° 0 mm 4 m/s 751 mmHg 84%

26 Outubro, Segunda-feira

Tempo Temperatura Precipitação Vento Pressão Humidade
00:00 +8°C° 0 mm 4 m/s 751 mmHg 87%
01:00 +9°C° 0 mm 3 m/s 751 mmHg 89%
02:00 +9°C° 0 mm 3 m/s 751 mmHg 90%
03:00 +8°C° 0 mm 3 m/s 751 mmHg 91%
04:00 +8°C° 0 mm 3 m/s 751 mmHg 93%
05:00 +8°C° 0 mm 3 m/s 751 mmHg 93%
06:00 +8°C° 0 mm 3 m/s 751 mmHg 94%
07:00 +7°C° 0 mm 2 m/s 751 mmHg 94%
08:00 +9°C° 0 mm 3 m/s 751 mmHg 89%
09:00 +10°C° 0 mm 3 m/s 751 mmHg 84%
10:00 +12°C° 0 mm 3 m/s 751 mmHg 79%
11:00 +13°C° 0 mm 3 m/s 750 mmHg 76%
12:00 +14°C° 0 mm 3 m/s 750 mmHg 72%
13:00 +14°C° 0 mm 3 m/s 750 mmHg 68%
14:00 +15°C° 0 mm 2 m/s 750 mmHg 70%
15:00 +14°C° 0 mm 2 m/s 750 mmHg 73%
16:00 +14°C° 0 mm 1 m/s 750 mmHg 75%
17:00 +13°C° 0 mm 1 m/s 750 mmHg 77%
18:00 +13°C° 0 mm 1 m/s 750 mmHg 78%
19:00 +13°C° 0 mm 2 m/s 750 mmHg 80%
20:00 +13°C° 0 mm 2 m/s 750 mmHg 80%
21:00 +13°C° 0 mm 2 m/s 751 mmHg 81%
22:00 +13°C° 0 mm 2 m/s 751 mmHg 82%
23:00 +13°C° 0 mm 1 m/s 751 mmHg 82%

27 Outubro, Terça-feira

Tempo Temperatura Precipitação Vento Pressão Humidade
00:00 +13°C° 0 mm 1 m/s 751 mmHg 82%
01:00 +12°C° 0 mm 1 m/s 751 mmHg 82%
02:00 +12°C° 0 mm 1 m/s 751 mmHg 81%
03:00 +12°C° 0 mm 1 m/s 751 mmHg 81%
04:00 +11°C° 0 mm 0 m/s 751 mmHg 81%
05:00 +11°C° 0 mm 0 m/s 752 mmHg 81%
06:00 +12°C° 0 mm 1 m/s 752 mmHg 82%
07:00 +12°C° 0 mm 1 m/s 752 mmHg 82%
08:00 +12°C° 0 mm 1 m/s 752 mmHg 82%
09:00 +12°C° 0 mm 1 m/s 753 mmHg 83%
10:00 +12°C° 0 mm 1 m/s 753 mmHg 83%
11:00 +13°C° 0 mm 1 m/s 753 mmHg 81%
12:00 +13°C° 0 mm 1 m/s 753 mmHg 79%
13:00 +14°C° 0 mm 1 m/s 754 mmHg 77%
14:00 +14°C° 0 mm 1 m/s 754 mmHg 78%
15:00 +13°C° 0 mm 1 m/s 754 mmHg 80%
16:00 +13°C° 0 mm 1 m/s 754 mmHg 82%
17:00 +12°C° 0 mm 1 m/s 754 mmHg 84%
18:00 +12°C° 0 mm 1 m/s 755 mmHg 85%
19:00 +11°C° 0 mm 1 m/s 755 mmHg 87%
20:00 +11°C° 0 mm 1 m/s 755 mmHg 89%
21:00 +11°C° 0 mm 1 m/s 755 mmHg 90%
22:00 +10°C° 0 mm 1 m/s 756 mmHg 91%
23:00 +10°C° 0 mm 1 m/s 756 mmHg 91%
Mostrar mais